| time (UTC) | temp F | wind direction | speed MPH | gust MPH | rain 1hr in | rain 24hr in | rain mn in | humidity % | barometer mb |
| 20260904073423 | 70 | 122 | 5.0 | 11.0 | 0.00 | 0.00 | 0.00 | 85 | 1022.0 |
| 20260904072424 | 69 | 114 | 7.0 | 12.0 | 0.00 | 0.00 | 0.00 | 85 | 1022.0 |
| 20260904071421 | 69 | 113 | 8.0 | 11.0 | 0.00 | 0.00 | 0.00 | 86 | 1022.1 |
| 20260904070421 | 69 | 118 | 11.0 | 18.0 | 0.00 | 0.00 | 0.00 | 87 | 1022.2 |
| 20260904065323 | 68 | 115 | 5.0 | 9.0 | 0.00 | 0.00 | 0.00 | 87 | 1022.3 |
| 20260904064322 | 68 | 127 | 6.0 | 11.0 | 0.00 | 0.00 | 0.00 | 88 | 1022.2 |
| 20260904063420 | 68 | 114 | 7.0 | 14.0 | 0.00 | 0.00 | 0.00 | 88 | 1022.4 |
| 20260904062423 | 68 | 124 | 8.0 | 12.0 | 0.00 | 0.00 | 0.00 | 89 | 1022.5 |
| 20260904061521 | 68 | 118 | 7.0 | 12.0 | 0.00 | 0.00 | 0.00 | 89 | 1022.7 |
| 20260904055521 | 67 | 126 | 6.0 | 14.0 | 0.00 | 0.00 | 0.00 | 90 | 1022.9 |
| 20260904054524 | 67 | 122 | 6.0 | 9.0 | 0.00 | 0.00 | 0.00 | 90 | 1022.9 |
| 20260904051522 | 67 | 114 | 6.0 | 9.0 | 0.00 | 0.00 | 0.00 | 90 | 1023.4 |
| 20260904050522 | 67 | 116 | 6.0 | 9.0 | 0.00 | 0.00 | 0.00 | 90 | 1023.5 |
| 20260904050424 | 67 | 117 | 7.0 | 11.0 | 0.00 | 0.00 | 0.00 | 90 | 1023.5 |
| 20260904045422 | 67 | 114 | 6.0 | 10.0 | 0.00 | 0.00 | 0.00 | 90 | 1023.5 |
| 20260904044422 | 67 | 112 | 6.0 | 9.0 | 0.00 | 0.00 | 0.00 | 90 | 1023.7 |
| 20260904043423 | 67 | 118 | 3.0 | 5.0 | 0.00 | 0.00 | 0.00 | 90 | 1023.6 |
| 20260904042520 | 67 | 115 | 4.0 | 8.0 | 0.00 | 0.00 | 0.00 | 91 | 1023.7 |
| 20260904042424 | 67 | 112 | 5.0 | 8.0 | 0.00 | 0.00 | 0.00 | 91 | 1023.7 |
| 20260904042320 | 67 | 112 | 7.0 | 13.0 | 0.00 | 0.00 | 0.00 | 91 | 1023.5 |
| 20260904041321 | 67 | 120 | 5.0 | 11.0 | 0.00 | 0.00 | 0.00 | 91 | 1023.6 |
| 20260904040420 | 67 | 117 | 4.0 | 6.0 | 0.00 | 0.00 | 0.00 | 91 | 1023.6 |
| 20260904035423 | 67 | 114 | 6.0 | 10.0 | 0.00 | 0.00 | 0.00 | 91 | 1023.8 |
| 20260904034422 | 67 | 120 | 6.0 | 12.0 | 0.00 | 0.00 | 0.00 | 91 | 1023.9 |
| 20260904033423 | 67 | 116 | 6.0 | 10.0 | 0.00 | 0.00 | 0.00 | 91 | 1024.1 |
| 20260904032520 | 67 | 113 | 4.0 | 10.0 | 0.00 | 0.00 | 0.00 | 91 | 1024.2 |
| 20260904031522 | 67 | 119 | 7.0 | 13.0 | 0.00 | 0.00 | 0.00 | 91 | 1024.1 |
| 20260904030521 | 67 | 115 | 8.0 | 13.0 | 0.00 | 0.00 | 0.00 | 92 | 1024.2 |
| 20260904025521 | 67 | 119 | 5.0 | 8.0 | 0.00 | 0.00 | 0.00 | 92 | 1024.2 |
| 20260904024438 | 67 | 113 | 5.0 | 8.0 | 0.00 | 0.00 | 0.00 | 92 | 1024.4 |
| 20260904023522 | 67 | 121 | 6.0 | 11.0 | 0.00 | 0.00 | 0.00 | 91 | 1024.5 |
| 20260904022620 | 67 | 112 | 5.0 | 8.0 | 0.00 | 0.00 | 0.00 | 91 | 1024.6 |
| 20260904021621 | 67 | 116 | 4.0 | 7.0 | 0.00 | 0.00 | 0.00 | 91 | 1024.7 |
| 20260904020620 | 67 | 113 | 9.0 | 14.0 | 0.00 | 0.00 | 0.00 | 91 | 1024.7 |
| 20260904020520 | 67 | 126 | 6.0 | 11.0 | 0.00 | 0.00 | 0.00 | 91 | 1024.9 |
| 20260904015522 | 67 | 122 | 6.0 | 10.0 | 0.00 | 0.00 | 0.00 | 91 | 1025.0 |
| 20260904013623 | 67 | 124 | 6.0 | 11.0 | 0.00 | 0.00 | 0.00 | 92 | 1025.3 |
| 20260904012623 | 67 | 115 | 4.0 | 9.0 | 0.00 | 0.00 | 0.00 | 92 | 1025.2 |
| 20260904011621 | 67 | 117 | 7.0 | 12.0 | 0.00 | 0.00 | 0.00 | 92 | 1025.4 |
| 20260904010623 | 67 | 129 | 6.0 | 11.0 | 0.00 | 0.00 | 0.00 | 92 | 1025.4 |
| 20260904005621 | 67 | 120 | 7.0 | 11.0 | 0.00 | 0.00 | 0.00 | 92 | 1025.4 |
| 20260904004622 | 68 | 129 | 5.0 | 8.0 | 0.00 | 0.00 | 0.00 | 92 | 1025.4 |
| 20260904003620 | 67 | 126 | 4.0 | 7.0 | 0.00 | 0.00 | 0.00 | 92 | 1025.5 |
| 20260904002621 | 67 | 124 | 5.0 | 8.0 | 0.00 | 0.00 | 0.00 | 92 | 1025.6 |
| 20260904001621 | 67 | 119 | 4.0 | 8.0 | 0.00 | 0.00 | 0.00 | 93 | 1025.6 |
| 20260904000622 | 67 | 135 | 4.0 | 8.0 | 0.00 | 0.00 | 0.00 | 93 | 1025.9 |
| 20260903235722 | 67 | 127 | 2.0 | 4.0 | 0.00 | 0.00 | 0.00 | 93 | 1026.2 |
| 20260903233722 | 66 | 122 | 4.0 | 7.0 | 0.00 | 0.00 | 0.00 | 94 | 1026.3 |
| 20260903232820 | 66 | 120 | 6.0 | 12.0 | 0.00 | 0.00 | 0.00 | 93 | 1026.1 |
| 20260903232721 | 66 | 115 | 6.0 | 10.0 | 0.00 | 0.00 | 0.00 | 93 | 1026.2 |
| 20260903231722 | 66 | 142 | 7.0 | 12.0 | 0.00 | 0.00 | 0.00 | 93 | 1026.4 |
| 20260903230722 | 66 | 125 | 4.0 | 7.0 | 0.00 | 0.00 | 0.00 | 93 | 1026.5 |
| 20260903225722 | 66 | 134 | 2.0 | 6.0 | 0.00 | 0.00 | 0.00 | 93 | 1026.5 |
| 20260903224820 | 66 | 146 | 5.0 | 11.0 | 0.00 | 0.00 | 0.00 | 92 | 1026.7 |
| 20260903223821 | 66 | 114 | 2.0 | 6.0 | 0.00 | 0.00 | 0.00 | 92 | 1026.6 |
| 20260903222823 | 66 | 136 | 5.0 | 11.0 | 0.00 | 0.00 | 0.00 | 92 | 1026.7 |
| 20260903221921 | 66 | 132 | 3.0 | 7.0 | 0.00 | 0.00 | 0.00 | 91 | 1026.8 |
| 20260903220924 | 67 | 126 | 5.0 | 7.0 | 0.00 | 0.00 | 0.00 | 91 | 1027.0 |
| 20260903215020 | 67 | 129 | 5.0 | 8.0 | 0.00 | 0.00 | 0.00 | 91 | 1027.0 |
| 20260903214921 | 67 | 128 | 4.0 | 8.0 | 0.00 | 0.00 | 0.00 | 91 | 1027.1 |
| 20260903214020 | 66 | 129 | 6.0 | 11.0 | 0.00 | 0.00 | 0.00 | 90 | 1027.2 |
| 20260903213022 | 66 | 135 | 2.0 | 5.0 | 0.00 | 0.00 | 0.00 | 90 | 1027.4 |
| 20260903211920 | 66 | 133 | 4.0 | 7.0 | 0.00 | 0.00 | 0.00 | 89 | 1027.5 |
| 20260903210921 | 66 | 133 | 5.0 | 9.0 | 0.00 | 0.00 | 0.00 | 89 | 1027.5 |
| 20260903205921 | 66 | 115 | 5.0 | 8.0 | 0.00 | 0.00 | 0.00 | 89 | 1027.2 |
| 20260903205823 | 66 | 118 | 5.0 | 7.0 | 0.00 | 0.00 | 0.00 | 89 | 1027.3 |
| 20260903205721 | 66 | 131 | 4.0 | 7.0 | 0.00 | 0.00 | 0.00 | 89 | 1027.2 |
| 20260903203720 | 66 | 126 | 5.0 | 7.0 | 0.00 | 0.00 | 0.00 | 87 | 1027.5 |
| 20260903202722 | 66 | 112 | 3.0 | 5.0 | 0.00 | 0.00 | 0.00 | 86 | 1027.5 |
| 20260903202620 | 66 | 112 | 2.0 | 4.0 | 0.00 | 0.00 | 0.00 | 86 | 1027.5 |
| 20260903202521 | 66 | 112 | 3.0 | 4.0 | 0.00 | 0.00 | 0.00 | 86 | 1027.5 |
| 20260903201619 | 66 | 112 | 3.0 | 3.0 | 0.00 | 0.00 | 0.00 | 86 | 1027.5 |
| 20260903200621 | 66 | 112 | 3.0 | 5.0 | 0.00 | 0.00 | 0.00 | 85 | 1027.6 |
| 20260903200522 | 66 | 119 | 3.0 | 5.0 | 0.00 | 0.00 | 0.00 | 84 | 1027.5 |
| 20260903194519 | 66 | 119 | 2.0 | 4.0 | 0.00 | 0.00 | 0.00 | 82 | 1027.7 |
| 20260903193519 | 66 | 112 | 2.0 | 4.0 | 0.00 | 0.00 | 0.00 | 82 | 1027.5 |
| 20260903192520 | 66 | 112 | 2.0 | 3.0 | 0.00 | 0.00 | 0.00 | 80 | 1027.7 |
| 20260903191519 | 67 | 112 | 2.0 | 3.0 | 0.00 | 0.00 | 0.00 | 80 | 1027.5 |
| 20260903190618 | 67 | 112 | 1.0 | 2.0 | 0.00 | 0.00 | 0.00 | 80 | 1027.5 |
| 20260903185619 | 67 | 112 | 2.0 | 4.0 | 0.00 | 0.00 | 0.00 | 79 | 1027.5 |
| 20260903184519 | 68 | 112 | 2.0 | 4.0 | 0.00 | 0.00 | 0.00 | 79 | 1027.5 |
| 20260903184420 | 68 | 112 | 1.0 | 3.0 | 0.00 | 0.00 | 0.00 | 78 | 1027.4 |
| 20260903183519 | 68 | 112 | 1.0 | 3.0 | 0.00 | 0.00 | 0.00 | 77 | 1027.7 |
| 20260903183418 | 68 | 112 | 1.0 | 3.0 | 0.00 | 0.00 | 0.00 | 77 | 1027.7 |
| 20260903182419 | 69 | 112 | 0.0 | 0.0 | 0.00 | 0.00 | 0.00 | 76 | 1027.5 |
| 20260903182320 | 69 | 112 | 0.0 | 2.0 | 0.00 | 0.00 | 0.00 | 75 | 1027.4 |
| 20260903181420 | 69 | 180 | 2.0 | 4.0 | 0.00 | 0.00 | 0.00 | 74 | 1027.7 |
| 20260903180421 | 70 | 168 | 2.0 | 5.0 | 0.00 | 0.00 | 0.00 | 73 | 1027.7 |
| 20260903180320 | 70 | 180 | 3.0 | 4.0 | 0.00 | 0.00 | 0.00 | 73 | 1027.6 |
| 20260903175321 | 70 | 119 | 4.0 | 6.0 | 0.00 | 0.00 | 0.00 | 71 | 1027.4 |
| 20260903174420 | 71 | 171 | 4.0 | 7.0 | 0.00 | 0.00 | 0.00 | 71 | 1027.3 |
| 20260903173418 | 71 | 155 | 7.0 | 10.0 | 0.00 | 0.00 | 0.00 | 71 | 1027.4 |
| 20260903172420 | 71 | 145 | 4.0 | 8.0 | 0.00 | 0.00 | 0.00 | 70 | 1027.3 |
| 20260903171518 | 72 | 168 | 4.0 | 7.0 | 0.00 | 0.00 | 0.00 | 70 | 1027.5 |
| 20260903170535 | 73 | 152 | 5.0 | 8.0 | 0.00 | 0.00 | 0.00 | 70 | 1027.3 |
| 20260903165520 | 73 | 135 | 3.0 | 6.0 | 0.00 | 0.00 | 0.00 | 71 | 1027.3 |
| 20260903164521 | 73 | 145 | 4.0 | 8.0 | 0.00 | 0.00 | 0.00 | 71 | 1027.1 |
| 20260903163620 | 73 | 180 | 4.0 | 7.0 | 0.00 | 0.00 | 0.00 | 71 | 1027.3 |
| 20260903162620 | 74 | 180 | 5.0 | 8.0 | 0.00 | 0.00 | 0.00 | 71 | 1027.2 |
| 20260903161622 | 74 | 180 | 4.0 | 7.0 | 0.00 | 0.00 | 0.00 | 71 | 1027.2 |
| 20260903155519 | 75 | 178 | 3.0 | 7.0 | 0.00 | 0.00 | 0.00 | 68 | 1027.3 |
| 20260903154520 | 76 | 168 | 5.0 | 9.0 | 0.00 | 0.00 | 0.00 | 67 | 1027.3 |
| 20260903153519 | 75 | 162 | 8.0 | 16.0 | 0.00 | 0.00 | 0.00 | 68 | 1027.2 |
| 20260903151618 | 74 | 164 | 8.0 | 12.0 | 0.00 | 0.00 | 0.00 | 72 | 1027.5 |
| 20260903150619 | 74 | 171 | 5.0 | 6.0 | 0.00 | 0.00 | 0.00 | 72 | 1027.3 |
| 20260903145620 | 74 | 155 | 7.0 | 12.0 | 0.00 | 0.00 | 0.00 | 73 | 1027.3 |
| 20260903144621 | 73 | 152 | 10.0 | 13.0 | 0.00 | 0.00 | 0.00 | 74 | 1027.5 |
| 20260903143619 | 72 | 171 | 11.0 | 13.0 | 0.00 | 0.00 | 0.00 | 74 | 1027.5 |
| 20260903141619 | 73 | 144 | 11.0 | 17.0 | 0.00 | 0.00 | 0.00 | 75 | 1027.4 |
| 20260903140718 | 72 | 159 | 9.0 | 13.0 | 0.00 | 0.00 | 0.00 | 76 | 1027.3 |
| 20260903135720 | 72 | 127 | 6.0 | 13.0 | 0.00 | 0.00 | 0.00 | 78 | 1027.4 |
| 20260903134721 | 71 | 137 | 7.0 | 13.0 | 0.00 | 0.00 | 0.00 | 81 | 1027.3 |
| 20260903132818 | 70 | 162 | 5.0 | 10.0 | 0.00 | 0.00 | 0.00 | 85 | 1027.4 |
| 20260903131822 | 69 | 133 | 5.0 | 9.0 | 0.00 | 0.00 | 0.00 | 86 | 1027.5 |
| 20260903131721 | 69 | 142 | 5.0 | 8.0 | 0.00 | 0.00 | 0.00 | 86 | 1027.4 |
| 20260903130818 | 69 | 146 | 4.0 | 9.0 | 0.00 | 0.00 | 0.00 | 86 | 1027.5 |
| 20260903124821 | 68 | 116 | 6.0 | 8.0 | 0.00 | 0.00 | 0.00 | 87 | 1027.3 |
| 20260903123918 | 69 | 126 | 4.0 | 7.0 | 0.00 | 0.00 | 0.00 | 88 | 1027.2 |
| 20260903122919 | 68 | 129 | 5.0 | 9.0 | 0.00 | 0.00 | 0.00 | 90 | 1027.3 |
| 20260903120920 | 69 | 116 | 5.0 | 10.0 | 0.00 | 0.00 | 0.00 | 94 | 1027.1 |
| 20260903120820 | 69 | 118 | 5.0 | 8.0 | 0.00 | 0.00 | 0.00 | 94 | 1027.2 |
| 20260903115819 | 68 | 150 | 5.0 | 10.0 | 0.00 | 0.00 | 0.00 | 96 | 1027.2 |
| 20260903114820 | 67 | 119 | 5.0 | 9.0 | 0.00 | 0.00 | 0.00 | 96 | 1027.4 |
| 20260903112818 | 65 | 146 | 5.0 | 9.0 | 0.00 | 0.00 | 0.00 | 96 | 1027.5 |
| 20260903111819 | 65 | 162 | 7.0 | 10.0 | 0.00 | 0.00 | 0.00 | 95 | 1027.7 |
| 20260903104920 | 64 | 115 | 3.0 | 5.0 | 0.00 | 0.00 | 0.00 | 95 | 1027.4 |
| 20260903103920 | 64 | 134 | 4.0 | 10.0 | 0.00 | 0.00 | 0.00 | 95 | 1027.4 |
| 20260903101920 | 64 | 131 | 4.0 | 8.0 | 0.00 | 0.00 | 0.00 | 95 | 1027.4 |
| 20260903094920 | 63 | 126 | 6.0 | 9.0 | 0.00 | 0.00 | 0.00 | 94 | 1027.2 |
| 20260903094820 | 63 | 138 | 7.0 | 11.0 | 0.00 | 0.00 | 0.00 | 94 | 1027.4 |
| 20260903094718 | 63 | 128 | 4.0 | 7.0 | 0.00 | 0.00 | 0.00 | 94 | 1027.5 |
| 20260903093719 | 63 | 125 | 6.0 | 13.0 | 0.00 | 0.00 | 0.00 | 94 | 1027.2 |
| 20260903092719 | 63 | 121 | 5.0 | 9.0 | 0.00 | 0.00 | 0.00 | 94 | 1027.4 |
| 20260903091721 | 63 | 131 | 5.0 | 8.0 | 0.00 | 0.00 | 0.00 | 93 | 1027.3 |
| 20260903090721 | 62 | 123 | 3.0 | 5.0 | 0.00 | 0.00 | 0.00 | 93 | 1027.3 |
| 20260903090620 | 62 | 116 | 4.0 | 10.0 | 0.00 | 0.00 | 0.00 | 93 | 1027.3 |
| 20260903085622 | 62 | 121 | 3.0 | 6.0 | 0.00 | 0.00 | 0.00 | 93 | 1027.2 |
| 20260903083620 | 62 | 116 | 6.0 | 9.0 | 0.00 | 0.00 | 0.00 | 92 | 1027.2 |
| 20260903082620 | 62 | 113 | 7.0 | 11.0 | 0.00 | 0.00 | 0.00 | 91 | 1027.2 |
| 20260903082519 | 62 | 116 | 7.0 | 10.0 | 0.00 | 0.00 | 0.00 | 91 | 1027.3 |
| 20260903081519 | 62 | 117 | 3.0 | 5.0 | 0.00 | 0.00 | 0.00 | 91 | 1027.2 |
| 20260903080520 | 62 | 112 | 4.0 | 7.0 | 0.00 | 0.00 | 0.00 | 89 | 1027.2 |
| 20260903075522 | 61 | 112 | 2.0 | 4.0 | 0.00 | 0.00 | 0.00 | 88 | 1027.1 |
| 20260903074519 | 62 | 112 | 6.0 | 10.0 | 0.00 | 0.00 | 0.00 | 84 | 1027.4 |